Time,TemperatureF,DewpointF,PressureIn,WindDirection,WindDirectionDegrees,WindSpeedMPH,WindSpeedGustMPH,Humidity,HourlyPrecipIn,Conditions,Clouds,dailyrainin,SoftwareType,DateUTC
2013-03-21 00:00:00,26.9,23.0,29.75,WSW,240,0.0,0.0,85,0.00,CLR,,0.11,WeatherDisplay:10.37,2013-03-21 04:00:00,
2013-03-21 00:05:00,26.7,22.8,29.76,WSW,240,0.0,1.1,85,0.00,CLR,,0.00,WeatherDisplay:10.37,2013-03-21 04:05:00,
2013-03-21 00:10:00,26.7,22.8,29.76,WSW,240,0.0,0.0,85,0.00,CLR,,0.00,WeatherDisplay:10.37,2013-03-21 04:10:00,
2013-03-21 00:11:00,26.7,22.8,29.76,WSW,240,0.0,0.0,85,0.00,CLR,,0.00,WeatherDisplay:10.37,2013-03-21 04:11:00,
2013-03-21 00:17:00,26.7,23.1,29.76,WSW,240,0.5,1.1,86,0.00,CLR,,0.00,WeatherDisplay:10.37,2013-03-21 04:17:00,
2013-03-21 00:22:00,26.6,23.0,29.76,WSW,240,0.0,1.1,86,0.00,CLR,,0.00,WeatherDisplay:10.37,2013-03-21 04:22:00,
2013-03-21 00:27:00,26.6,23.3,29.76,WSW,240,0.0,0.0,87,0.00,CLR,,0.00,WeatherDisplay:10.37,2013-03-21 04:27:00,
2013-03-21 00:32:00,26.6,23.3,29.76,WSW,240,0.0,0.0,87,0.00,CLR,,0.00,WeatherDisplay:10.37,2013-03-21 04:32:00,
2013-03-21 00:38:00,26.6,23.3,29.76,WSW,240,0.0,0.0,87,0.00,CLR,,0.00,WeatherDisplay:10.37,2013-03-21 04:38:00,
2013-03-21 00:43:00,26.6,23.3,29.76,WSW,240,0.0,0.0,87,0.00,CLR,,0.00,WeatherDisplay:10.37,2013-03-21 04:43:00,
2013-03-21 00:48:00,26.6,23.0,29.76,WSW,240,0.0,0.0,86,0.00,CLR,,0.00,WeatherDisplay:10.37,2013-03-21 04:48:00,
2013-03-21 00:53:00,26.6,22.7,29.76,WSW,240,0.0,0.0,85,0.00,CLR,,0.00,WeatherDisplay:10.37,2013-03-21 04:53:00,
2013-03-21 00:58:00,26.9,22.7,29.76,WSW,240,0.0,0.0,84,0.00,CLR,,0.00,WeatherDisplay:10.37,2013-03-21 04:58:00,
2013-03-21 01:04:00,27.0,22.5,29.76,WSW,240,0.0,0.0,83,0.00,CLR,,0.00,WeatherDisplay:10.37,2013-03-21 05:04:00,
2013-03-21 01:09:00,26.6,21.8,29.76,WSW,240,0.0,2.3,82,0.00,CLR,,0.00,WeatherDisplay:10.37,2013-03-21 05:09:00,
2013-03-21 01:14:00,26.4,21.7,29.76,WSW,240,0.0,0.0,82,0.00,CLR,,0.00,WeatherDisplay:10.37,2013-03-21 05:14:00,
2013-03-21 01:19:00,26.6,21.8,29.76,WSW,240,0.0,1.1,82,0.00,CLR,,0.00,WeatherDisplay:10.37,2013-03-21 05:19:00,
2013-03-21 01:24:00,26.7,21.9,29.76,WSW,240,0.0,0.0,82,0.00,CLR,,0.00,WeatherDisplay:10.37,2013-03-21 05:24:00,
2013-03-21 01:29:00,26.7,21.9,29.76,WSW,240,0.0,0.0,82,0.00,CLR,,0.00,WeatherDisplay:10.37,2013-03-21 05:29:00,
2013-03-21 01:34:00,26.6,21.8,29.76,WSW,240,0.0,0.0,82,0.00,CLR,,0.00,WeatherDisplay:10.37,2013-03-21 05:34:00,
2013-03-21 01:39:00,26.6,22.1,29.76,WSW,240,0.0,0.0,83,0.00,CLR,,0.00,WeatherDisplay:10.37,2013-03-21 05:39:00,
2013-03-21 01:45:00,26.4,21.9,29.76,WSW,240,0.0,0.0,83,0.00,CLR,,0.00,WeatherDisplay:10.37,2013-03-21 05:45:00,
2013-03-21 01:50:00,26.3,22.1,29.76,WSW,240,0.0,0.0,84,0.00,CLR,,0.00,WeatherDisplay:10.37,2013-03-21 05:50:00,
2013-03-21 01:55:00,26.1,21.9,29.76,WSW,240,0.0,0.0,84,0.00,CLR,,0.00,WeatherDisplay:10.37,2013-03-21 05:55:00,
2013-03-21 02:00:00,26.1,22.2,29.76,WSW,240,0.0,0.0,85,0.00,CLR,,0.00,WeatherDisplay:10.37,2013-03-21 06:00:00,
2013-03-21 02:05:00,26.1,22.5,29.75,WSW,240,0.0,0.0,86,0.00,CLR,,0.00,WeatherDisplay:10.37,2013-03-21 06:05:00,
2013-03-21 02:10:00,26.1,22.5,29.75,WSW,240,0.0,0.0,86,0.00,CLR,,0.00,WeatherDisplay:10.37,2013-03-21 06:10:00,
2013-03-21 02:15:00,26.0,22.7,29.75,WSW,240,0.0,0.0,87,0.00,CLR,,0.00,WeatherDisplay:10.37,2013-03-21 06:15:00,
2013-03-21 02:20:00,26.0,22.7,29.75,WSW,240,0.0,0.0,87,0.00,CLR,,0.00,WeatherDisplay:10.37,2013-03-21 06:20:00,
2013-03-21 02:26:00,26.0,22.9,29.75,WSW,240,0.0,0.0,88,0.00,CLR,,0.00,WeatherDisplay:10.37,2013-03-21 06:26:00,
2013-03-21 02:31:00,25.8,22.7,29.75,WSW,240,0.0,0.0,88,0.00,CLR,,0.00,WeatherDisplay:10.37,2013-03-21 06:31:00,
2013-03-21 02:37:00,25.8,23.0,29.75,WSW,240,0.0,0.0,89,0.00,CLR,,0.00,WeatherDisplay:10.37,2013-03-21 06:37:00,
2013-03-21 02:42:00,25.8,23.0,29.75,WSW,240,0.0,0.0,89,0.00,CLR,,0.00,WeatherDisplay:10.37,2013-03-21 06:42:00,
2013-03-21 02:47:00,25.8,23.0,29.74,WSW,240,0.0,0.0,89,0.00,CLR,,0.00,WeatherDisplay:10.37,2013-03-21 06:47:00,
2013-03-21 02:53:00,25.6,22.5,29.75,WSW,240,0.0,0.0,88,0.00,CLR,,0.00,WeatherDisplay:10.37,2013-03-21 06:53:00,
2013-03-21 02:58:00,25.4,22.3,29.74,WSW,240,0.0,0.0,88,0.00,CLR,,0.00,WeatherDisplay:10.37,2013-03-21 06:58:00,
2013-03-21 03:03:00,25.3,22.0,29.74,WSW,240,0.0,0.0,87,0.00,CLR,,0.00,WeatherDisplay:10.37,2013-03-21 07:03:00,
2013-03-21 03:08:00,25.4,22.1,29.74,WSW,240,0.0,0.0,87,0.00,CLR,,0.00,WeatherDisplay:10.37,2013-03-21 07:08:00,
2013-03-21 03:14:00,25.4,22.1,29.74,WSW,240,0.0,0.0,87,0.00,CLR,,0.00,WeatherDisplay:10.37,2013-03-21 07:14:00,
2013-03-21 03:19:00,25.6,22.3,29.73,WSW,240,0.0,0.0,87,0.00,CLR,,0.00,WeatherDisplay:10.37,2013-03-21 07:19:00,
2013-03-21 03:24:00,25.6,22.0,29.74,WSW,240,0.0,0.0,86,0.00,CLR,,0.00,WeatherDisplay:10.37,2013-03-21 07:24:00,
2013-03-21 03:30:00,25.6,22.0,29.73,WSW,240,0.0,0.0,86,0.00,CLR,,0.00,WeatherDisplay:10.37,2013-03-21 07:30:00,
2013-03-21 03:35:00,25.6,22.0,29.73,WSW,240,0.0,0.0,86,0.00,CLR,,0.00,WeatherDisplay:10.37,2013-03-21 07:35:00,
2013-03-21 03:40:00,25.7,22.1,29.73,WSW,240,0.0,0.0,86,0.00,CLR,,0.00,WeatherDisplay:10.37,2013-03-21 07:40:00,
2013-03-21 03:45:00,25.6,22.0,29.73,WSW,240,0.0,0.0,86,0.00,CLR,,0.00,WeatherDisplay:10.37,2013-03-21 07:45:00,
2013-03-21 03:50:00,25.6,22.0,29.73,WSW,240,0.0,0.0,86,0.00,CLR,,0.00,WeatherDisplay:10.37,2013-03-21 07:50:00,
2013-03-21 03:55:00,25.6,22.0,29.73,WSW,240,0.0,0.0,86,0.00,CLR,,0.00,WeatherDisplay:10.37,2013-03-21 07:55:00,
2013-03-21 04:00:00,25.6,22.0,29.72,WSW,240,0.0,0.0,86,0.00,CLR,,0.00,WeatherDisplay:10.37,2013-03-21 08:00:00,
2013-03-21 04:06:00,25.6,22.3,29.72,WSW,240,0.0,0.0,87,0.00,CLR,,0.00,WeatherDisplay:10.37,2013-03-21 08:06:00,
2013-03-21 04:11:00,25.7,22.4,29.72,WSW,240,0.0,0.0,87,0.00,CLR,,0.00,WeatherDisplay:10.37,2013-03-21 08:11:00,
2013-03-21 04:17:00,25.7,22.4,29.72,WSW,240,0.0,0.0,87,0.00,CLR,,0.00,WeatherDisplay:10.37,2013-03-21 08:17:00,
2013-03-21 04:22:00,25.6,22.5,29.72,WSW,240,0.0,0.0,88,0.00,CLR,,0.00,WeatherDisplay:10.37,2013-03-21 08:22:00,
2013-03-21 04:27:00,25.4,22.3,29.72,WSW,240,0.0,0.0,88,0.00,CLR,,0.00,WeatherDisplay:10.37,2013-03-21 08:27:00,
2013-03-21 04:33:00,25.4,22.3,29.72,WSW,240,0.0,0.0,88,0.00,CLR,,0.00,WeatherDisplay:10.37,2013-03-21 08:33:00,
2013-03-21 04:38:00,25.4,22.3,29.72,WSW,240,0.0,0.0,88,0.00,CLR,,0.00,WeatherDisplay:10.37,2013-03-21 08:38:00,
2013-03-21 04:43:00,25.4,22.3,29.72,WSW,240,0.0,0.0,88,0.00,CLR,,0.00,WeatherDisplay:10.37,2013-03-21 08:43:00,
2013-03-21 04:48:00,25.6,22.5,29.71,WSW,240,0.0,0.0,88,0.00,CLR,,0.00,WeatherDisplay:10.37,2013-03-21 08:48:00,
2013-03-21 04:54:00,25.6,22.5,29.71,WSW,240,0.0,0.0,88,0.00,CLR,,0.00,WeatherDisplay:10.37,2013-03-21 08:54:00,
2013-03-21 04:59:00,25.6,22.5,29.72,WSW,240,0.0,0.0,88,0.00,CLR,,0.00,WeatherDisplay:10.37,2013-03-21 08:59:00,
2013-03-21 05:04:00,25.6,22.5,29.71,WSW,240,0.0,0.0,88,0.00,CLR,,0.00,WeatherDisplay:10.37,2013-03-21 09:04:00,
2013-03-21 05:09:00,25.7,22.9,29.71,WSW,240,0.0,0.0,89,0.00,CLR,,0.00,WeatherDisplay:10.37,2013-03-21 09:09:00,
2013-03-21 05:14:00,25.6,22.8,29.71,WSW,240,0.0,0.0,89,0.00,CLR,,0.00,WeatherDisplay:10.37,2013-03-21 09:14:00,
2013-03-21 05:19:00,25.4,22.6,29.71,WSW,240,0.0,0.0,89,0.00,CLR,,0.00,WeatherDisplay:10.37,2013-03-21 09:19:00,
2013-03-21 05:24:00,25.3,22.5,29.71,WSW,240,0.0,0.0,89,0.00,CLR,,0.00,WeatherDisplay:10.37,2013-03-21 09:24:00,
2013-03-21 05:29:00,25.3,22.8,29.71,WSW,240,0.0,0.0,90,0.00,CLR,,0.00,WeatherDisplay:10.37,2013-03-21 09:29:00,
2013-03-21 05:35:00,25.3,22.8,29.71,WSW,240,0.0,0.0,90,0.00,CLR,,0.00,WeatherDisplay:10.37,2013-03-21 09:35:00,
2013-03-21 05:40:00,25.3,22.8,29.71,WSW,240,0.0,0.0,90,0.00,CLR,,0.00,WeatherDisplay:10.37,2013-03-21 09:40:00,
2013-03-21 05:45:00,25.4,22.9,29.70,WSW,240,0.0,0.0,90,0.00,CLR,,0.00,WeatherDisplay:10.37,2013-03-21 09:45:00,
2013-03-21 05:51:00,25.4,22.6,29.71,WSW,240,0.0,0.0,89,0.00,CLR,,0.00,WeatherDisplay:10.37,2013-03-21 09:51:00,
2013-03-21 05:56:00,25.3,22.5,29.71,WSW,240,0.0,0.0,89,0.00,CLR,,0.00,WeatherDisplay:10.37,2013-03-21 09:56:00,
2013-03-21 06:01:00,25.1,22.0,29.71,WSW,240,0.0,0.0,88,0.00,CLR,,0.00,WeatherDisplay:10.37,2013-03-21 10:01:00,
2013-03-21 06:06:00,25.0,21.9,29.72,WSW,240,0.0,0.0,88,0.00,CLR,,0.00,WeatherDisplay:10.37,2013-03-21 10:06:00,
2013-03-21 06:11:00,25.1,21.8,29.72,WSW,240,0.0,0.0,87,0.00,CLR,,0.00,WeatherDisplay:10.37,2013-03-21 10:11:00,
2013-03-21 06:17:00,25.1,21.5,29.72,WSW,240,0.0,0.0,86,0.00,CLR,,0.00,WeatherDisplay:10.37,2013-03-21 10:17:00,
2013-03-21 06:22:00,25.1,21.5,29.72,WSW,240,0.0,0.0,86,0.00,CLR,,0.00,WeatherDisplay:10.37,2013-03-21 10:22:00,
2013-03-21 06:27:00,25.1,21.5,29.72,WSW,240,0.0,0.0,86,0.00,CLR,,0.00,WeatherDisplay:10.37,2013-03-21 10:27:00,
2013-03-21 06:32:00,25.1,21.5,29.72,WSW,240,0.0,0.0,86,0.00,CLR,,0.00,WeatherDisplay:10.37,2013-03-21 10:32:00,
2013-03-21 06:37:00,25.1,21.8,29.72,WSW,240,0.0,0.0,87,0.00,CLR,,0.00,WeatherDisplay:10.37,2013-03-21 10:37:00,
2013-03-21 06:42:00,25.1,21.5,29.72,WSW,240,0.0,0.0,86,0.00,CLR,,0.00,WeatherDisplay:10.37,2013-03-21 10:42:00,
2013-03-21 06:48:00,25.0,21.4,29.72,WSW,240,0.0,0.0,86,0.00,CLR,,0.00,WeatherDisplay:10.37,2013-03-21 10:48:00,
2013-03-21 06:53:00,25.0,21.4,29.72,WSW,240,0.0,0.0,86,0.00,CLR,,0.00,WeatherDisplay:10.37,2013-03-21 10:53:00,
2013-03-21 06:58:00,25.0,21.4,29.72,WSW,240,0.0,0.0,86,0.00,CLR,,0.00,WeatherDisplay:10.37,2013-03-21 10:58:00,
2013-03-21 07:03:00,25.0,21.4,29.72,WSW,240,0.0,0.0,86,0.00,CLR,,0.00,WeatherDisplay:10.37,2013-03-21 11:03:00,
2013-03-21 07:08:00,25.1,21.5,29.72,WSW,240,0.0,0.0,86,0.00,CLR,,0.00,WeatherDisplay:10.37,2013-03-21 11:08:00,
2013-03-21 07:13:00,25.3,21.7,29.72,WSW,240,0.0,0.0,86,0.00,CLR,,0.00,WeatherDisplay:10.37,2013-03-21 11:13:00,
2013-03-21 07:19:00,25.4,21.8,29.72,WSW,240,0.0,0.0,86,0.00,CLR,,0.00,WeatherDisplay:10.37,2013-03-21 11:19:00,
2013-03-21 07:24:00,25.6,22.3,29.72,WSW,240,0.0,0.0,87,0.00,CLR,,0.00,WeatherDisplay:10.37,2013-03-21 11:24:00,
2013-03-21 07:29:00,25.6,22.5,29.72,WSW,240,0.0,0.0,88,0.00,CLR,,0.00,WeatherDisplay:10.37,2013-03-21 11:29:00,
2013-03-21 07:34:00,25.7,22.6,29.72,WSW,240,0.0,0.0,88,0.00,CLR,,0.00,WeatherDisplay:10.37,2013-03-21 11:34:00,
2013-03-21 07:39:00,25.8,23.0,29.72,WSW,240,0.0,0.0,89,0.00,CLR,,0.00,WeatherDisplay:10.37,2013-03-21 11:39:00,
2013-03-21 07:44:00,26.0,23.2,29.72,WSW,240,0.0,0.0,89,0.00,CLR,,0.00,WeatherDisplay:10.37,2013-03-21 11:44:00,
2013-03-21 07:49:00,26.0,22.7,29.72,WSW,240,0.0,0.0,87,0.00,CLR,,0.00,WeatherDisplay:10.37,2013-03-21 11:49:00,
2013-03-21 07:54:00,26.1,22.8,29.72,WSW,240,0.0,0.0,87,0.00,CLR,,0.00,WeatherDisplay:10.37,2013-03-21 11:54:00,
2013-03-21 07:59:00,26.3,22.4,29.72,WSW,240,0.0,0.0,85,0.00,CLR,,0.00,WeatherDisplay:10.37,2013-03-21 11:59:00,
2013-03-21 08:05:00,26.4,21.4,29.73,WSW,240,0.0,0.0,81,0.00,CLR,,0.00,WeatherDisplay:10.37,2013-03-21 12:05:00,
2013-03-21 08:10:00,26.7,21.1,29.72,WSW,240,0.0,0.0,79,0.00,CLR,,0.00,WeatherDisplay:10.37,2013-03-21 12:10:00,
2013-03-21 08:15:00,26.9,20.0,29.72,WSW,240,0.0,0.0,75,0.00,CLR,,0.00,WeatherDisplay:10.37,2013-03-21 12:15:00,
2013-03-21 08:20:00,27.2,19.7,29.72,WSW,240,0.1,0.0,73,0.00,CLR,,0.00,WeatherDisplay:10.37,2013-03-21 12:20:00,
2013-03-21 08:25:00,27.3,19.5,29.72,WSW,240,0.4,2.3,72,0.00,CLR,,0.00,WeatherDisplay:10.37,2013-03-21 12:25:00,
2013-03-21 08:30:00,27.5,19.3,29.72,West,277,0.0,2.3,71,0.00,CLR,,0.00,WeatherDisplay:10.37,2013-03-21 12:30:00,
2013-03-21 08:35:00,27.6,19.4,29.72,North,9,2.3,3.5,71,0.00,CLR,,0.00,WeatherDisplay:10.37,2013-03-21 12:35:00,
2013-03-21 08:40:00,27.6,19.4,29.72,North,9,0.0,0.0,71,0.00,CLR,,0.00,WeatherDisplay:10.37,2013-03-21 12:40:00,
2013-03-21 08:46:00,27.9,20.0,29.71,North,355,1.3,3.5,72,0.00,CLR,,0.00,WeatherDisplay:10.37,2013-03-21 12:46:00,
2013-03-21 08:52:00,28.2,20.3,29.71,NW,304,0.2,3.0,72,0.00,CLR,,0.00,WeatherDisplay:10.37,2013-03-21 12:52:00,
2013-03-21 08:57:00,28.5,20.3,29.71,NW,317,1.9,3.5,71,0.00,CLR,,0.00,WeatherDisplay:10.37,2013-03-21 12:57:00,
2013-03-21 09:02:00,29.0,20.8,29.71,NNW,336,2.7,4.6,71,0.00,CLR,,0.00,WeatherDisplay:10.37,2013-03-21 13:02:00,
2013-03-21 09:07:00,29.0,20.8,29.71,NW,317,1.0,3.5,71,0.00,CLR,,0.00,WeatherDisplay:10.37,2013-03-21 13:07:00,
2013-03-21 09:12:00,29.0,20.4,29.71,NNW,332,1.5,3.5,70,0.00,CLR,,0.00,WeatherDisplay:10.37,2013-03-21 13:12:00,
2013-03-21 09:17:00,28.8,20.2,29.71,NNE,31,0.4,1.1,70,0.00,CLR,,0.00,WeatherDisplay:10.37,2013-03-21 13:17:00,
2013-03-21 09:22:00,29.0,20.4,29.71,NNW,343,2.7,3.5,70,0.00,CLR,,0.00,WeatherDisplay:10.37,2013-03-21 13:22:00,
2013-03-21 09:27:00,29.1,20.2,29.71,NNE,17,2.6,3.5,69,0.00,CLR,,0.00,WeatherDisplay:10.37,2013-03-21 13:27:00,
2013-03-21 09:32:00,29.3,20.4,29.70,North,9,2.6,3.5,69,0.00,CLR,,0.00,WeatherDisplay:10.37,2013-03-21 13:32:00,
2013-03-21 09:37:00,29.3,19.7,29.70,NNW,329,2.3,4.6,67,0.00,CLR,,0.00,WeatherDisplay:10.37,2013-03-21 13:37:00,
2013-03-21 09:42:00,29.4,19.8,29.70,NW,308,2.7,4.0,67,0.00,CLR,,0.00,WeatherDisplay:10.37,2013-03-21 13:42:00,
2013-03-21 09:47:00,29.7,18.6,29.70,NNE,23,3.7,4.6,63,0.00,CLR,,0.00,WeatherDisplay:10.37,2013-03-21 13:47:00,
2013-03-21 09:53:00,29.7,18.3,29.70,NNE,25,1.9,3.5,62,0.00,CLR,,0.00,WeatherDisplay:10.37,2013-03-21 13:53:00,
2013-03-21 09:58:00,29.8,17.6,29.70,NNW,336,1.5,5.8,60,0.00,CLR,,0.00,WeatherDisplay:10.37,2013-03-21 13:58:00,
2013-03-21 10:03:00,30.1,17.9,29.70,NNW,347,3.0,4.6,60,0.00,CLR,,0.00,WeatherDisplay:10.37,2013-03-21 14:03:00,
2013-03-21 10:08:00,30.1,17.1,29.69,NE,51,4.7,7.0,58,0.00,CLR,,0.00,WeatherDisplay:10.37,2013-03-21 14:08:00,
2013-03-21 10:13:00,30.1,15.9,29.69,North,10,4.3,4.6,55,0.00,CLR,,0.00,WeatherDisplay:10.37,2013-03-21 14:13:00,
2013-03-21 10:19:00,30.1,16.7,29.69,North,355,2.9,6.0,57,0.00,CLR,,0.00,WeatherDisplay:10.37,2013-03-21 14:19:00,
2013-03-21 10:24:00,30.1,16.3,29.69,NE,34,2.7,5.0,56,0.00,CLR,,0.00,WeatherDisplay:10.37,2013-03-21 14:24:00,
2013-03-21 10:29:00,30.1,16.7,29.69,NW,321,0.1,2.3,57,0.00,CLR,,0.00,WeatherDisplay:10.37,2013-03-21 14:29:00,
2013-03-21 10:34:00,30.4,17.0,29.69,NNE,13,0.6,2.3,57,0.00,CLR,,0.00,WeatherDisplay:10.37,2013-03-21 14:34:00,
2013-03-21 10:39:00,30.6,16.7,29.69,NNE,21,3.0,5.0,56,0.00,CLR,,0.00,WeatherDisplay:10.37,2013-03-21 14:39:00,
2013-03-21 10:45:00,30.6,16.3,29.69,NE,36,5.5,7.0,55,0.00,CLR,,0.00,WeatherDisplay:10.37,2013-03-21 14:45:00,
2013-03-21 10:50:00,30.6,16.7,29.69,NNE,33,4.3,5.8,56,0.00,CLR,,0.00,WeatherDisplay:10.37,2013-03-21 14:50:00,
2013-03-21 10:55:00,30.7,15.6,29.69,NE,46,4.8,9.2,53,0.00,CLR,,0.00,WeatherDisplay:10.37,2013-03-21 14:55:00,
2013-03-21 11:01:00,30.9,15.3,29.69,NE,37,6.4,10.4,52,0.00,CLR,,0.00,WeatherDisplay:10.37,2013-03-21 15:01:00,
2013-03-21 11:06:00,31.0,16.3,29.68,NNE,24,3.5,4.6,54,0.00,CLR,,0.00,WeatherDisplay:10.37,2013-03-21 15:06:00,
2013-03-21 11:11:00,31.2,14.7,29.67,NE,53,5.7,8.1,50,0.00,CLR,,0.00,WeatherDisplay:10.37,2013-03-21 15:11:00,
2013-03-21 11:16:00,31.5,15.0,29.67,NNE,32,5.1,9.2,50,0.00,CLR,,0.00,WeatherDisplay:10.37,2013-03-21 15:16:00,
2013-03-21 11:22:00,31.8,15.3,29.67,NE,35,3.0,4.6,50,0.00,CLR,,0.00,WeatherDisplay:10.37,2013-03-21 15:22:00,
2013-03-21 11:27:00,32.1,14.1,29.67,NNE,22,5.5,9.0,47,0.00,CLR,,0.00,WeatherDisplay:10.37,2013-03-21 15:27:00,
2013-03-21 11:32:00,32.2,12.7,29.67,North,5,4.6,9.2,44,0.00,CLR,,0.00,WeatherDisplay:10.37,2013-03-21 15:32:00,
2013-03-21 11:38:00,32.2,12.2,29.67,North,5,3.7,8.1,43,0.00,CLR,,0.00,WeatherDisplay:10.37,2013-03-21 15:38:00,
2013-03-21 11:43:00,32.5,14.0,29.67,NNE,17,4.6,6.0,46,0.00,CLR,,0.00,WeatherDisplay:10.37,2013-03-21 15:43:00,
2013-03-21 11:48:00,32.8,12.2,29.67,NE,40,4.7,5.8,42,0.00,CLR,,0.00,WeatherDisplay:10.37,2013-03-21 15:48:00,
2013-03-21 11:53:00,32.8,11.6,29.67,NE,36,7.6,9.2,41,0.00,CLR,,0.00,WeatherDisplay:10.37,2013-03-21 15:53:00,
2013-03-21 11:58:00,33.1,12.5,29.67,NE,53,6.2,9.2,42,0.00,CLR,,0.00,WeatherDisplay:10.37,2013-03-21 15:58:00,
2013-03-21 12:03:00,33.5,12.8,29.67,ENE,65,5.7,9.0,42,0.00,CLR,,0.00,WeatherDisplay:10.37,2013-03-21 16:03:00,
2013-03-21 12:08:00,33.7,14.1,29.66,NNE,23,5.4,9.2,44,0.00,CLR,,0.00,WeatherDisplay:10.37,2013-03-21 16:08:00,
2013-03-21 12:14:00,34.1,12.8,29.66,NNE,22,6.8,10.4,41,0.00,CLR,,0.00,WeatherDisplay:10.37,2013-03-21 16:14:00,
2013-03-21 12:19:00,34.1,13.9,29.66,NE,46,6.5,10.4,43,0.00,CLR,,0.00,WeatherDisplay:10.37,2013-03-21 16:19:00,
2013-03-21 12:24:00,33.8,13.6,29.66,NNE,23,5.9,11.5,43,0.00,CLR,,0.00,WeatherDisplay:10.37,2013-03-21 16:24:00,
2013-03-21 12:29:00,33.7,13.5,29.66,ENE,62,1.2,4.0,43,0.00,CLR,,0.00,WeatherDisplay:10.37,2013-03-21 16:29:00,
2013-03-21 12:34:00,33.7,13.5,29.65,NE,51,6.2,10.4,43,0.00,CLR,,0.00,WeatherDisplay:10.37,2013-03-21 16:34:00,
2013-03-21 12:39:00,33.7,12.5,29.64,North,355,6.6,11.5,41,0.00,CLR,,0.00,WeatherDisplay:10.37,2013-03-21 16:39:00,
2013-03-21 12:44:00,33.8,13.1,29.64,North,360,3.4,5.0,42,0.00,CLR,,0.00,WeatherDisplay:10.37,2013-03-21 16:44:00,
2013-03-21 12:49:00,34.3,12.4,29.64,NNW,329,1.2,3.5,40,0.00,CLR,,0.00,WeatherDisplay:10.37,2013-03-21 16:49:00,
2013-03-21 12:54:00,34.6,11.6,29.64,North,5,2.1,4.6,38,0.00,CLR,,0.00,WeatherDisplay:10.37,2013-03-21 16:54:00,
2013-03-21 13:00:00,34.1,12.3,29.64,NNE,20,2.3,4.6,40,0.00,CLR,,0.00,WeatherDisplay:10.37,2013-03-21 17:00:00,
2013-03-21 13:05:00,34.1,11.7,29.64,NNE,22,9.1,12.7,39,0.00,CLR,,0.00,WeatherDisplay:10.37,2013-03-21 17:05:00,
2013-03-21 13:10:00,34.1,11.1,29.63,NE,51,4.3,6.9,38,0.00,CLR,,0.00,WeatherDisplay:10.37,2013-03-21 17:10:00,
2013-03-21 13:15:00,34.3,10.7,29.63,NNW,335,3.1,11.5,37,0.00,CLR,,0.00,WeatherDisplay:10.37,2013-03-21 17:15:00,
2013-03-21 13:21:00,34.7,12.2,29.63,NNE,19,4.0,5.8,39,0.00,CLR,,0.00,WeatherDisplay:10.37,2013-03-21 17:21:00,
2013-03-21 13:26:00,34.9,12.4,29.63,ENE,61,4.9,4.9,39,0.00,CLR,,0.00,WeatherDisplay:10.37,2013-03-21 17:26:00,
2013-03-21 13:31:00,35.0,11.3,29.63,North,360,3.8,5.8,37,0.00,CLR,,0.00,WeatherDisplay:10.37,2013-03-21 17:31:00,
2013-03-21 13:36:00,35.3,12.2,29.63,NNE,32,7.4,10.4,38,0.00,CLR,,0.00,WeatherDisplay:10.37,2013-03-21 17:36:00,
2013-03-21 13:42:00,35.5,11.8,29.62,North,355,2.9,4.6,37,0.00,CLR,,0.00,WeatherDisplay:10.37,2013-03-21 17:42:00,
2013-03-21 13:47:00,35.6,11.9,29.62,ENE,69,4.2,9.2,37,0.00,CLR,,0.00,WeatherDisplay:10.37,2013-03-21 17:47:00,
2013-03-21 13:52:00,35.6,11.9,29.62,NNE,30,4.1,5.8,37,0.00,CLR,,0.00,WeatherDisplay:10.37,2013-03-21 17:52:00,
2013-03-21 13:57:00,35.3,11.0,29.61,NNE,12,1.4,4.6,36,0.00,CLR,,0.00,WeatherDisplay:10.37,2013-03-21 17:57:00,
2013-03-21 14:03:00,35.5,11.8,29.61,NW,306,0.9,3.5,37,0.00,CLR,,0.00,WeatherDisplay:10.37,2013-03-21 18:03:00,
2013-03-21 14:08:00,35.8,11.4,29.61,NE,36,4.5,6.9,36,0.00,CLR,,0.00,WeatherDisplay:10.37,2013-03-21 18:08:00,
2013-03-21 14:13:00,35.9,12.1,29.61,NNE,22,5.8,14.0,37,0.00,CLR,,0.00,WeatherDisplay:10.37,2013-03-21 18:13:00,
2013-03-21 14:18:00,35.5,9.9,29.61,ENE,69,7.9,11.5,34,0.00,CLR,,0.00,WeatherDisplay:10.37,2013-03-21 18:18:00,
2013-03-21 14:23:00,35.6,9.3,29.60,NNE,20,7.5,10.4,33,0.00,CLR,,0.00,WeatherDisplay:10.37,2013-03-21 18:23:00,
2013-03-21 14:29:00,36.0,10.3,29.60,NW,316,4.8,7.0,34,0.00,CLR,,0.00,WeatherDisplay:10.37,2013-03-21 18:29:00,
2013-03-21 14:34:00,35.9,10.9,29.60,NW,315,8.5,13.8,35,0.00,CLR,,0.00,WeatherDisplay:10.37,2013-03-21 18:34:00,
2013-03-21 14:39:00,36.0,11.0,29.59,NW,321,3.2,10.0,35,0.00,CLR,,0.00,WeatherDisplay:10.37,2013-03-21 18:39:00,
2013-03-21 14:44:00,36.5,10.7,29.59,NNW,342,2.9,3.5,34,0.00,CLR,,0.00,WeatherDisplay:10.37,2013-03-21 18:44:00,
2013-03-21 14:49:00,36.3,9.9,29.59,NE,42,5.1,7.0,33,0.00,CLR,,0.00,WeatherDisplay:10.37,2013-03-21 18:49:00,
2013-03-21 14:55:00,36.3,11.2,29.59,WNW,302,3.8,4.6,35,0.00,CLR,,0.00,WeatherDisplay:10.37,2013-03-21 18:55:00,
2013-03-21 15:00:00,36.8,10.3,29.59,NW,304,2.2,3.5,33,0.01,RA,,0.01,WeatherDisplay:10.37,2013-03-21 19:00:00,
2013-03-21 15:05:00,36.3,11.2,29.59,NNE,28,2.3,3.5,35,0.01,RA,,0.01,WeatherDisplay:10.37,2013-03-21 19:05:00,
2013-03-21 15:11:00,36.3,11.9,29.58,NE,53,2.0,4.0,36,0.01,CLR,,0.01,WeatherDisplay:10.37,2013-03-21 19:11:00,
2013-03-21 15:17:00,36.3,10.6,29.58,WNW,296,2.7,3.5,34,0.01,,,0.01,WeatherDisplay:10.37,2013-03-21 19:17:00,
2013-03-21 15:22:00,36.0,11.6,29.58,NNE,28,5.4,6.9,36,0.01,,,0.01,WeatherDisplay:10.37,2013-03-21 19:22:00,
2013-03-21 15:27:00,36.2,11.8,29.58,North,360,1.6,1.6,36,0.01,,,0.01,WeatherDisplay:10.37,2013-03-21 19:27:00,
2013-03-21 15:32:00,36.8,12.3,29.58,NNW,331,1.2,2.3,36,0.01,,,0.01,WeatherDisplay:10.37,2013-03-21 19:32:00,
2013-03-21 15:37:00,36.6,10.8,29.58,NE,34,2.2,5.8,34,0.01,,,0.01,WeatherDisplay:10.37,2013-03-21 19:37:00,
2013-03-21 15:42:00,36.3,12.5,29.58,NNW,328,6.2,8.1,37,0.01,,,0.01,WeatherDisplay:10.37,2013-03-21 19:42:00,
2013-03-21 15:47:00,36.5,11.4,29.58,NNW,329,3.4,6.9,35,0.01,,,0.01,WeatherDisplay:10.37,2013-03-21 19:47:00,
2013-03-21 15:53:00,36.5,13.9,29.58,North,11,1.4,3.5,39,0.01,,,0.01,WeatherDisplay:10.37,2013-03-21 19:53:00,
2013-03-21 15:58:00,36.6,11.5,29.58,NNE,28,3.5,4.0,35,0.01,,,0.01,WeatherDisplay:10.37,2013-03-21 19:58:00,
2013-03-21 16:03:00,36.6,12.7,29.58,North,350,3.0,6.9,37,0.00,CLR,,0.01,WeatherDisplay:10.37,2013-03-21 20:03:00,
2013-03-21 16:08:00,36.5,12.0,29.57,North,10,1.7,4.0,36,0.00,CLR,,0.01,WeatherDisplay:10.37,2013-03-21 20:08:00,
2013-03-21 16:13:00,36.2,11.1,29.57,NNE,19,1.8,6.9,35,0.00,CLR,,0.01,WeatherDisplay:10.37,2013-03-21 20:13:00,
2013-03-21 16:18:00,36.0,11.6,29.57,NNE,32,1.5,3.5,36,0.00,CLR,,0.01,WeatherDisplay:10.37,2013-03-21 20:18:00,
2013-03-21 16:24:00,36.2,12.4,29.56,NNE,28,1.6,4.0,37,0.00,CLR,,0.01,WeatherDisplay:10.37,2013-03-21 20:24:00,
2013-03-21 16:29:00,36.2,11.1,29.56,NNE,22,2.4,6.9,35,0.00,CLR,,0.01,WeatherDisplay:10.37,2013-03-21 20:29:00,
2013-03-21 16:34:00,36.0,12.2,29.56,NNE,16,2.7,4.0,37,0.00,CLR,,0.01,WeatherDisplay:10.37,2013-03-21 20:34:00,
2013-03-21 16:39:00,36.0,12.8,29.56,NNW,329,2.8,4.6,38,0.00,CLR,,0.01,WeatherDisplay:10.37,2013-03-21 20:39:00,
2013-03-21 16:44:00,36.2,13.0,29.56,NNE,13,1.9,2.3,38,0.00,CLR,,0.01,WeatherDisplay:10.37,2013-03-21 20:44:00,
2013-03-21 16:49:00,36.6,12.1,29.56,NE,43,4.0,4.6,36,0.00,CLR,,0.01,WeatherDisplay:10.37,2013-03-21 20:49:00,
2013-03-21 16:54:00,36.8,11.7,29.56,ENE,76,4.5,10.4,35,0.00,CLR,,0.01,WeatherDisplay:10.37,2013-03-21 20:54:00,
2013-03-21 16:59:00,36.9,13.0,29.56,NE,45,3.9,9.0,37,0.00,CLR,,0.01,WeatherDisplay:10.37,2013-03-21 20:59:00,
2013-03-21 17:04:00,36.9,12.4,29.56,North,355,3.8,4.6,36,0.00,CLR,,0.01,WeatherDisplay:10.37,2013-03-21 21:04:00,
2013-03-21 17:09:00,36.8,12.9,29.56,NNE,22,7.7,12.7,37,0.00,CLR,,0.01,WeatherDisplay:10.37,2013-03-21 21:09:00,
2013-03-21 17:15:00,36.5,13.3,29.56,ENE,68,5.9,6.9,38,0.00,CLR,,0.01,WeatherDisplay:10.37,2013-03-21 21:15:00,
2013-03-21 17:20:00,36.3,11.9,29.56,NNE,30,4.1,10.4,36,0.00,CLR,,0.01,WeatherDisplay:10.37,2013-03-21 21:20:00,
2013-03-21 17:25:00,36.5,13.9,29.56,NNW,344,3.0,4.6,39,0.00,CLR,,0.01,WeatherDisplay:10.37,2013-03-21 21:25:00,
2013-03-21 17:30:00,36.2,11.8,29.57,North,355,8.4,15.0,36,0.00,CLR,,0.01,WeatherDisplay:10.37,2013-03-21 21:30:00,
2013-03-21 17:35:00,35.9,12.7,29.57,NNE,17,3.8,6.9,38,0.00,CLR,,0.01,WeatherDisplay:10.37,2013-03-21 21:35:00,
2013-03-21 17:40:00,35.9,12.1,29.57,NNE,32,5.3,9.2,37,0.00,CLR,,0.01,WeatherDisplay:10.37,2013-03-21 21:40:00,
2013-03-21 17:46:00,35.9,12.7,29.57,NNE,28,4.9,10.4,38,0.00,CLR,,0.01,WeatherDisplay:10.37,2013-03-21 21:46:00,
2013-03-21 17:52:00,35.9,12.1,29.57,NE,42,5.0,6.9,37,0.00,CLR,,0.01,WeatherDisplay:10.37,2013-03-21 21:52:00,
2013-03-21 17:57:00,35.6,13.0,29.57,North,9,4.7,5.8,39,0.00,CLR,,0.01,WeatherDisplay:10.37,2013-03-21 21:57:00,
2013-03-21 18:02:00,35.6,11.9,29.57,NNW,336,4.9,6.9,37,0.00,CLR,,0.01,WeatherDisplay:10.37,2013-03-21 22:02:00,
2013-03-21 18:07:00,35.5,12.4,29.57,NNE,30,5.4,10.4,38,0.00,CLR,,0.01,WeatherDisplay:10.37,2013-03-21 22:07:00,
2013-03-21 18:12:00,35.3,12.8,29.57,NNE,19,4.9,6.9,39,0.00,CLR,,0.01,WeatherDisplay:10.37,2013-03-21 22:12:00,
2013-03-21 18:18:00,35.2,12.7,29.58,NNE,15,3.2,6.0,39,0.00,CLR,,0.01,WeatherDisplay:10.37,2013-03-21 22:18:00,
2013-03-21 18:23:00,35.2,13.3,29.58,NNW,342,0.9,3.5,40,0.00,CLR,,0.01,WeatherDisplay:10.37,2013-03-21 22:23:00,
2013-03-21 18:28:00,35.0,13.6,29.58,NNE,28,2.0,3.5,41,0.00,CLR,,0.01,WeatherDisplay:10.37,2013-03-21 22:28:00,
2013-03-21 18:33:00,34.9,12.4,29.58,NNE,17,2.2,3.5,39,0.00,CLR,,0.01,WeatherDisplay:10.37,2013-03-21 22:33:00,
2013-03-21 18:38:00,34.7,13.4,29.58,NW,306,5.4,9.2,41,0.00,CLR,,0.01,WeatherDisplay:10.37,2013-03-21 22:38:00,
2013-03-21 18:44:00,34.6,12.7,29.58,NNE,26,4.1,10.0,40,0.00,CLR,,0.01,WeatherDisplay:10.37,2013-03-21 22:44:00,
2013-03-21 18:49:00,34.3,13.0,29.58,NNW,333,4.0,7.0,41,0.00,CLR,,0.01,WeatherDisplay:10.37,2013-03-21 22:49:00,
2013-03-21 18:54:00,34.1,12.8,29.58,North,5,0.9,3.5,41,0.00,CLR,,0.01,WeatherDisplay:10.37,2013-03-21 22:54:00,
2013-03-21 18:59:00,34.0,13.8,29.58,NNE,32,2.4,3.5,43,0.00,CLR,,0.01,WeatherDisplay:10.37,2013-03-21 22:59:00,
2013-03-21 19:04:00,33.7,13.0,29.58,North,9,5.4,6.9,42,0.00,CLR,,0.01,WeatherDisplay:10.37,2013-03-21 23:04:00,
2013-03-21 19:09:00,33.5,12.8,29.58,NNE,22,3.2,10.4,42,0.00,CLR,,0.01,WeatherDisplay:10.37,2013-03-21 23:09:00,
2013-03-21 19:15:00,33.4,12.7,29.59,NNE,12,2.5,3.5,42,0.00,CLR,,0.01,WeatherDisplay:10.37,2013-03-21 23:15:00,
2013-03-21 19:20:00,33.1,13.5,29.59,NNW,327,3.6,6.0,44,0.00,CLR,,0.01,WeatherDisplay:10.37,2013-03-21 23:20:00,
2013-03-21 19:25:00,32.9,12.8,29.59,NNE,24,5.0,6.9,43,0.00,CLR,,0.01,WeatherDisplay:10.37,2013-03-21 23:25:00,
2013-03-21 19:30:00,32.8,12.7,29.60,North,9,5.4,10.4,43,0.00,CLR,,0.01,WeatherDisplay:10.37,2013-03-21 23:30:00,
2013-03-21 19:36:00,32.5,13.0,29.60,North,11,3.2,10.0,44,0.00,CLR,,0.01,WeatherDisplay:10.37,2013-03-21 23:36:00,
2013-03-21 19:42:00,32.4,12.4,29.60,North,5,5.0,10.4,43,0.00,CLR,,0.01,WeatherDisplay:10.37,2013-03-21 23:42:00,
2013-03-21 19:48:00,32.2,12.7,29.60,North,5,3.5,5.8,44,0.00,CLR,,0.01,WeatherDisplay:10.37,2013-03-21 23:48:00,
2013-03-21 19:53:00,32.1,12.6,29.60,NNE,12,2.3,5.8,44,0.00,CLR,,0.01,WeatherDisplay:10.37,2013-03-21 23:53:00,
2013-03-21 19:58:00,31.8,12.8,29.61,North,5,3.9,4.6,45,0.00,CLR,,0.01,WeatherDisplay:10.37,2013-03-21 23:58:00,
2013-03-21 20:03:00,31.6,12.7,29.61,NE,36,4.2,5.8,45,0.00,CLR,,0.01,WeatherDisplay:10.37,2013-03-22 00:03:00,
2013-03-21 20:08:00,31.5,12.1,29.61,NNE,16,2.7,4.6,44,0.00,CLR,,0.01,WeatherDisplay:10.37,2013-03-22 00:08:00,
2013-03-21 20:13:00,31.3,12.4,29.61,North,11,3.3,5.8,45,0.00,CLR,,0.01,WeatherDisplay:10.37,2013-03-22 00:13:00,
2013-03-21 20:19:00,31.2,12.8,29.61,NNE,28,3.7,5.0,46,0.00,CLR,,0.01,WeatherDisplay:10.37,2013-03-22 00:19:00,
2013-03-21 20:24:00,31.0,12.1,29.61,North,355,2.2,3.5,45,0.00,CLR,,0.01,WeatherDisplay:10.37,2013-03-22 00:24:00,
2013-03-21 20:29:00,30.9,12.5,29.61,NNW,331,3.6,4.0,46,0.00,CLR,,0.01,WeatherDisplay:10.37,2013-03-22 00:29:00,
2013-03-21 20:34:00,30.9,12.0,29.61,NNW,346,2.0,3.5,45,0.00,CLR,,0.01,WeatherDisplay:10.37,2013-03-22 00:34:00,
2013-03-21 20:39:00,30.9,12.0,29.62,North,355,4.4,6.9,45,0.00,CLR,,0.01,WeatherDisplay:10.37,2013-03-22 00:39:00,
2013-03-21 20:45:00,30.9,12.0,29.62,NNE,26,3.8,6.9,45,0.00,CLR,,0.01,WeatherDisplay:10.37,2013-03-22 00:45:00,
2013-03-21 20:50:00,30.9,12.5,29.62,NNE,24,2.4,4.6,46,0.00,CLR,,0.01,WeatherDisplay:10.37,2013-03-22 00:50:00,
2013-03-21 20:55:00,30.7,12.3,29.62,NNE,15,3.2,4.6,46,0.00,CLR,,0.01,WeatherDisplay:10.37,2013-03-22 00:55:00,
2013-03-21 21:00:00,30.6,12.2,29.62,NNE,16,2.5,4.0,46,0.00,CLR,,0.01,WeatherDisplay:10.37,2013-03-22 01:00:00,
2013-03-21 21:05:00,30.6,11.7,29.62,NNE,19,4.2,5.8,45,0.00,CLR,,0.01,WeatherDisplay:10.37,2013-03-22 01:05:00,
2013-03-21 21:10:00,30.6,12.2,29.62,NNE,19,3.3,6.9,46,0.00,CLR,,0.01,WeatherDisplay:10.37,2013-03-22 01:10:00,
2013-03-21 21:16:00,30.6,12.2,29.62,North,355,5.4,9.0,46,0.00,CLR,,0.01,WeatherDisplay:10.37,2013-03-22 01:16:00,
2013-03-21 21:21:00,30.6,11.7,29.63,NNE,12,4.7,4.7,45,0.00,CLR,,0.01,WeatherDisplay:10.37,2013-03-22 01:21:00,
2013-03-21 21:26:00,30.6,11.7,29.62,NNW,345,4.5,5.8,45,0.00,CLR,,0.01,WeatherDisplay:10.37,2013-03-22 01:26:00,
2013-03-21 21:31:00,30.6,11.7,29.62,NE,56,7.4,11.5,45,0.00,CLR,,0.01,WeatherDisplay:10.37,2013-03-22 01:31:00,
2013-03-21 21:37:00,30.4,12.5,29.62,North,5,2.9,4.0,47,0.00,CLR,,0.01,WeatherDisplay:10.37,2013-03-22 01:37:00,
2013-03-21 21:42:00,30.4,12.1,29.62,North,350,3.0,9.2,46,0.00,CLR,,0.01,WeatherDisplay:10.37,2013-03-22 01:42:00,
2013-03-21 21:47:00,30.3,12.0,29.62,North,349,5.3,11.5,46,0.00,CLR,,0.01,WeatherDisplay:10.37,2013-03-22 01:47:00,
2013-03-21 21:52:00,30.1,12.3,29.63,NW,319,2.0,4.6,47,0.00,CLR,,0.01,WeatherDisplay:10.37,2013-03-22 01:52:00,
2013-03-21 21:58:00,30.0,11.7,29.63,North,9,4.1,10.4,46,0.00,CLR,,0.01,WeatherDisplay:10.37,2013-03-22 01:58:00,
2013-03-21 22:03:00,30.0,12.2,29.63,North,360,4.5,4.5,47,0.00,CLR,,0.01,WeatherDisplay:10.37,2013-03-22 02:03:00,
2013-03-21 22:08:00,30.0,12.2,29.63,NNW,348,1.5,4.0,47,0.00,CLR,,0.01,WeatherDisplay:10.37,2013-03-22 02:08:00,
2013-03-21 22:13:00,29.8,11.5,29.63,NNW,330,3.2,6.9,46,0.00,CLR,,0.01,WeatherDisplay:10.37,2013-03-22 02:13:00,
2013-03-21 22:18:00,29.8,12.0,29.63,NW,319,4.0,5.8,47,0.00,CLR,,0.01,WeatherDisplay:10.37,2013-03-22 02:18:00,
2013-03-21 22:24:00,29.8,12.0,29.63,NNE,19,4.1,5.0,47,0.00,CLR,,0.01,WeatherDisplay:10.37,2013-03-22 02:24:00,
2013-03-21 22:29:00,29.8,12.0,29.63,NNE,17,2.3,6.9,47,0.00,CLR,,0.01,WeatherDisplay:10.37,2013-03-22 02:29:00,
2013-03-21 22:34:00,29.8,12.0,29.63,NE,51,3.7,9.2,47,0.00,CLR,,0.01,WeatherDisplay:10.37,2013-03-22 02:34:00,
2013-03-21 22:39:00,29.7,11.9,29.64,NNW,347,8.0,12.7,47,0.00,CLR,,0.01,WeatherDisplay:10.37,2013-03-22 02:39:00,
2013-03-21 22:44:00,29.7,12.4,29.64,NNE,24,5.1,8.0,48,0.00,CLR,,0.01,WeatherDisplay:10.37,2013-03-22 02:44:00,
2013-03-21 22:50:00,29.5,12.2,29.64,NNW,346,4.2,11.5,48,0.00,CLR,,0.01,WeatherDisplay:10.37,2013-03-22 02:50:00,
2013-03-21 22:55:00,29.5,12.7,29.64,North,5,3.9,5.8,49,0.00,CLR,,0.01,WeatherDisplay:10.37,2013-03-22 02:55:00,
2013-03-21 23:00:00,29.4,12.6,29.64,NNE,15,2.7,6.9,49,0.00,CLR,,0.01,WeatherDisplay:10.37,2013-03-22 03:00:00,
2013-03-21 23:05:00,29.4,13.0,29.64,NW,313,1.0,3.5,50,0.00,CLR,,0.01,WeatherDisplay:10.37,2013-03-22 03:05:00,
2013-03-21 23:10:00,29.3,12.5,29.64,North,11,4.5,9.2,49,0.00,CLR,,0.01,WeatherDisplay:10.37,2013-03-22 03:10:00,
2013-03-21 23:16:00,29.3,12.9,29.64,NNE,17,2.7,5.8,50,0.00,CLR,,0.01,WeatherDisplay:10.37,2013-03-22 03:16:00,
2013-03-21 23:21:00,29.0,12.7,29.64,NW,314,4.3,5.8,50,0.00,CLR,,0.01,WeatherDisplay:10.37,2013-03-22 03:21:00,
2013-03-21 23:26:00,28.8,12.9,29.64,NNE,15,0.3,1.1,51,0.00,CLR,,0.01,WeatherDisplay:10.37,2013-03-22 03:26:00,
2013-03-21 23:31:00,28.7,13.3,29.64,North,5,1.7,3.5,52,0.00,CLR,,0.01,WeatherDisplay:10.37,2013-03-22 03:31:00,
2013-03-21 23:36:00,28.5,13.1,29.64,North,9,1.2,2.3,52,0.00,CLR,,0.01,WeatherDisplay:10.37,2013-03-22 03:36:00,
2013-03-21 23:41:00,28.4,13.0,29.64,NNE,12,2.5,3.5,52,0.00,CLR,,0.01,WeatherDisplay:10.37,2013-03-22 03:41:00,
2013-03-21 23:47:00,28.2,13.2,29.64,NNE,12,0.6,3.5,53,0.00,CLR,,0.01,WeatherDisplay:10.37,2013-03-22 03:47:00,
2013-03-21 23:52:00,28.1,13.1,29.65,NNE,12,1.5,2.3,53,0.00,CLR,,0.01,WeatherDisplay:10.37,2013-03-22 03:52:00,
2013-03-21 23:57:00,27.9,13.0,29.65,NNE,12,0.0,0.0,53,0.00,CLR,,0.01,WeatherDisplay:10.37,2013-03-22 03:57:00,